Location: Goettingen
(51.5300°N, 9.9433°E)
Time: 05:47:12
(UTC+02:00)

ISS - Pass Details

Date: 09 May 2021
Orbit: 417 x 422 km, 51.6° (Epoch: 18 May)

Event Time Altitude Azimuth Distance (km) Brightness Sun altitude
Exits shadow 02:03:27 28° 99° (E) 823 -2.3 -20.4°
Drops below altitude 10° 02:05:19 10° 82° (E) 1,506 -0.7 -20.3°
Sets 02:07:28 0° 77° (ENE) 2,373 0.4 -20.2°
